Weather History for Saginaw, MI

Change the Weather History Date:

Tuesday, September 11, 2012

  Actual Average Record
Temperature  
Mean Temperature 66 °F 63 °F  
Max Temperature 80 °F 74 °F 90 °F (1998)
Min Temperature 53 °F 52 °F 46 °F (2010)
Degree Days  
Heating Degree Days 0    
Month to date heating degree days  
Since 1 July heating degree days  
Cooling Degree Days 1    
Month to date cooling degree days  
Year to date cooling degree days  
Growing Degree Days 16 (Base 50)    
Moisture  
Dew Point 51 °F    
Average Humidity 61    
Maximum Humidity 80    
Minimum Humidity 39    
Precipitation  
Precipitation 0.00 in 0.13 in 1.05 in (1997)
Month to date precipitation 1.38  
Year to date precipitation 21.90  
Snow  
Snow 0.00 in - - ()
Month to date snowfall  
Since 1 July snowfall  
Since 1 September snowfall  
Snow Depth -    
Sea Level Pressure  
Sea Level Pressure 30.14 in    
Wind  
Wind Speed 9 mph (SSW)    
Max Wind Speed 22 mph    
Max Gust Speed 29 mph    
Visibility 10 miles    
Events      
T = Trace of Precipitation, MM = Missing Value Source: NWS Daily Summary

Daily Weather History Graph

Daily Weather History Graph

Search for Another Location

Airport:

Trip Planner

Search our weather history database for the weather conditions in past years. The results will help you decide how hot, cold, wet, or windy it might be!

Date:

Astronomy

Sep. 11, 2012 Rise Set
Actual Time 7:11 AM EDT 7:52 PM EDT
Civil Twilight 6:42 AM EDT 8:21 PM EDT
Nautical Twilight 6:08 AM EDT 8:55 PM EDT
Astronomical Twilight 5:33 AM EDT 9:31 PM EDT
Moon 2:21 AM EDT (9/11) 5:08 PM EDT (9/11)
Length of Visible Light 13h 38m
Length of Day
12h 41m
Waning Crescent, 21% of the Moon is Illuminated
Sep 11
Waning Crescent
Sep 15
New
Sep 22
First Quarter
Sep 29
Full
Oct 8
Last Quarter

Hourly Weather History & Observations

Time (EDT) Temp. Dew Point Humidity Pressure Visibility Wind Dir Wind Speed Gust Speed Precip Events Conditions
12:53 AM 55.9 °F 50.0 °F 80% 30.16 in 10.0 mi SSW 4.6 mph - N/A   Clear
1:53 AM 55.9 °F 48.9 °F 77% 30.16 in 10.0 mi South 5.8 mph - N/A   Clear
2:53 AM 55.9 °F 48.9 °F 77% 30.16 in 10.0 mi South 6.9 mph - N/A   Clear
3:53 AM 55.0 °F 48.9 °F 80% 30.16 in 10.0 mi South 6.9 mph - N/A   Clear
4:53 AM 54.0 °F 48.0 °F 80% 30.16 in 10.0 mi SSW 6.9 mph - N/A   Clear
5:53 AM 54.0 °F 46.9 °F 77% 30.17 in 10.0 mi South 5.8 mph - N/A   Clear
6:53 AM 53.1 °F 46.0 °F 77% 30.18 in 10.0 mi SSW 8.1 mph - N/A   Clear
7:53 AM 54.0 °F 46.9 °F 77% 30.19 in 10.0 mi South 9.2 mph - N/A   Clear
8:53 AM 57.9 °F 46.9 °F 67% 30.19 in 10.0 mi SSW 11.5 mph - N/A   Clear
9:53 AM 64.0 °F 50.0 °F 60% 30.18 in 10.0 mi SW 9.2 mph - N/A   Clear
10:53 AM 69.1 °F 51.1 °F 53% 30.17 in 10.0 mi SW 13.8 mph - N/A   Clear
11:53 AM 73.0 °F 51.1 °F 46% 30.17 in 10.0 mi SW 17.3 mph 24.2 mph N/A   Clear
12:53 PM 75.9 °F 51.1 °F 42% 30.15 in 10.0 mi SSW 16.1 mph 25.3 mph N/A   Clear
1:53 PM 77.0 °F 52.0 °F 42% 30.14 in 10.0 mi SSW 17.3 mph 23.0 mph N/A   Clear
2:53 PM 78.1 °F 51.1 °F 39% 30.12 in 10.0 mi SW 21.9 mph 28.8 mph N/A   Clear
3:53 PM 79.0 °F 53.1 °F 40% 30.11 in 10.0 mi SSW 12.7 mph 23.0 mph N/A   Clear
4:53 PM 79.0 °F 52.0 °F 39% 30.10 in 10.0 mi SSW 15.0 mph 21.9 mph N/A   Clear
5:53 PM 79.0 °F 53.1 °F 40% 30.10 in 10.0 mi SSW 9.2 mph 18.4 mph N/A   Clear
6:53 PM 75.2 °F 55.4 °F 50% 30.10 in 10.0 mi SW 6.9 mph - N/A   Clear
7:53 PM 70.0 °F 55.0 °F 59% 30.10 in 10.0 mi South 6.9 mph - N/A   Clear
8:53 PM 69.1 °F 55.0 °F 61% 30.11 in 10.0 mi South 8.1 mph - N/A   Clear
9:53 PM 66.9 °F 55.0 °F 66% 30.12 in 10.0 mi South 6.9 mph - N/A   Clear
10:53 PM 68.0 °F 54.0 °F 61% 30.12 in 10.0 mi SSW 9.2 mph - N/A   Clear
11:53 PM 64.0 °F 54.0 °F 70% 30.13 in 10.0 mi South 6.9 mph - N/A   Clear